C/2019 F1 ( ATLAS-Africano )

Japanese version
Home page
Updated on April 13, 2019

---------------------------------------------------------------------

* Profile

Discovery Date March 28 and 29, 2019
Magnitude 18.3 mag, 18.4 mag
Discoverer Asteroid Terrestrial-Impact Last Alert System (ATLAS) search program, B. M. Africano (Mount Lemmon Survey)

* Orbital Elements

Epoch 2021 July 5.0 TT = JDT 2459400.5
T 2021 June 23.38945 TT                                 MPCW
q   3.5977045            (2000.0)            P               Q
z  -0.0006925      Peri.  251.13060     +0.09433451     +0.85664769
 +/-0.0004314      Node    38.73017     -0.27704021     +0.51194038
e   1.0024913      Incl.   54.16226     -0.95621636     -0.06381048
From 317 observations 2019 Feb. 8-Apr. 9, mean residual 0".5.

* Finding Charts

* Magnitudes Graph

        m1 = 5.0 + 5 log d + 10.0 log r

---------------------------------------------------------------------

The orbital elements are published on M.P.E.C. 2019-G124.
The charts are made with StellaNavigator Ver.10 (AstroArts).
The magnitudes graphs are made with Comet for Windows.

---------------------------------------------------------------------

Copyright(C) Seiichi Yoshida (comet@aerith.net). All rights reserved.